星链-34441 (STARLINK-34441)

导读

STARLINK-34441是美国太空探索技术公司星链星座的一颗卫星,于2025年6月17日发射升空,星链项目旨在构建覆盖全球的卫星互联网星座,为全球用户提供高速网络服务,这颗卫星入轨后,将进一步扩充星链星座规模,提升全球卫星互联网的覆盖密度与服务能力,助力星座完成组网布局,延续美国低轨卫星互联网建设节奏。

Basic Information
目录编号:
64430
目录名称:
STARLINK-34441
国际标识:
2025-129U
轨道中心:
EARTH
卫星名称:
星链-34441
卫星全名:
星链-34441 (STARLINK-34441)
卫星状态:
在轨 (已飞行451 天)
发射日期:
2025-06-17 UTC
国别 :
美国 (US)
星等 :
--
This satellite is enrolled in the Space Conjunction Data Service (SCDS) and the current flight risk assessment level is: No High Risk
Orbit Information
数据来源 国际轨道数据
星历时间: 2026-09-11T06:00:04+0800
13小时前
查看轨道信息
半长轴: 6855.298km
偏心率: 0.0003232
轨道倾角: 70.000°
近地点辐角 270.832°
升交点赤经 326.463°
平近点角 206.577°
近地点: 474.945km
远地点: 479.377km
周期: 94.145分钟
每日圈数: 15.295488
Detailed Information
固有亮度:
5
最大亮度:
2.5
卫星平台:
Starlink V1.0
覆盖范围:
全球
运营商:
太空探索技术公司
运营商所在国:
美国
制造商(研发单位):
太空探索技术公司
制造商所在国:
美国
使用方式:
暂无
Satellite Introduction
Starlink 计划是 SpaceX 推出的全球卫星互联网项目,通过发射低轨道卫星,为全球尤其是偏远地区提供高速、低延迟的互联网服务。自 2019 年起,Starlink 已部署数千颗卫星,旨在缩小全球数字鸿沟,推动互联网普及。该项目还为军事、航空等行业提供通信支持,带来广泛经济效益。
2D Orbit Map
3D Orbit Map
Orbit Altitude Analysis Chart
Orbit Inclination Analysis Chart
Orbit Comprehensive Analysis Chart
View Comprehensive Chart
Conjunction Data List
Event ID Objects TCA Miss Dist (km) Collision Risk Probability Collision Risk Index (CRI) Action
CDM_260913-043606-210006-443021
2026-09-13T
04:36:01+0000
1.929 km
极远距离
2.535431E-6 低风险 0.43
CDM_260912-133006-443006-680822
2026-09-12T
13:30:05+0000
2.169 km
极远距离
2.138438E-6 低风险 0.42
CDM_260912-160305-651506-443021
2026-09-12T
16:03:57+0000
2.078 km
极远距离
1.911324E-6 低风险 0.41
CDM_260913-174305-915706-443021
2026-09-13T
17:43:56+0000
2.603 km
极远距离
1.494741E-6 低风险 0.38
CDM_260913-221804-780506-443021
2026-09-13T
22:18:15+0000
2.623 km
极远距离
1.447131E-6 低风险 0.38
CDM_260911-153305-771406-443021
2026-09-11T
15:33:34+0000
2.759 km
极远距离
1.368674E-6 低风险 0.38
CDM_260912-204605-929606-443021
2026-09-12T
20:46:45+0000
2.388 km
极远距离
1.32557E-6 低风险 0.37
CDM_260912-063805-734406-443022
2026-09-12T
06:38:08+0000
2.245 km
极远距离
1.244795E-6 低风险 0.37
CDM_260912-022005-726306-443021
2026-09-12T
02:20:03+0000
2.911 km
极远距离
1.089213E-6 低风险 0.36
CDM_260912-111705-987706-443021
2026-09-12T
11:17:13+0000
2.524 km
极远距离
8.501457E-7 极低风险 0.34
Miss Distance Evolution Trend with All Objects
Collision Probability Evolution Trend with All Objects